Theta_e
347 340 335 334 333 332 331 332 334 335 336 337 336 335 335 334 333 326 318 314 312 311 313 313 315 319 323 326 331 334 335 336 337 337 337 336 336 335 335 335 336 336 337 338 338 338 338 337 338 337 337 337 336 336 335 335 334 334 334 332 331 330 330 331 332 332 331 330 326 317 310 310 309 311 316 314 309 308 309 308 307 308 308 310 312
347 342 336 334 334 332 331 332 334 335 336 336 336 335 335 334 333 326 318 313 312 311 313 313 315 319 323 327 330 333 335 336 338 338 338 338 338 339 339 339 339 339 338 338 338 338 338 338 338 338 337 336 336 336 334 334 334 334 330 327 328 329 330 332 331 329 326 324 319 312 309 308 309 309 310 309 308 309 308 307 307 308 309 314 317
348 344 337 334 334 332 331 331 333 335 336 336 336 335 335 334 333 327 318 313 312 312 313 313 315 318 322 327 330 333 335 337 338 338 339 339 339 339 339 339 339 338 338 338 338 338 338 337 337 338 337 336 336 335 335 334 334 332 325 323 327 330 331 332 332 329 323 321 317 310 308 308 308 309 308 309 311 310 307 307 308 308 310 313 315
348 342 336 334 334 333 331 331 332 334 335 336 336 335 335 334 332 327 318 313 311 312 313 314 314 317 322 327 331 334 336 337 338 338 339 339 339 339 339 339 338 339 338 338 338 338 338 338 338 337 336 336 335 335 335 334 334 331 324 325 329 330 330 330 332 330 322 319 318 311 308 308 309 313 314 315 314 309 307 307 308 308 309 312 312
348 340 335 334 334 333 331 331 331 334 335 335 335 335 335 334 332 326 318 313 311 312 313 313 314 317 322 327 331 334 335 337 338 338 339 339 339 339 339 339 338 338 338 338 339 338 338 338 338 337 337 335 333 333 333 334 334 328 325 330 331 332 332 332 333 331 327 322 318 313 308 308 311 320 324 319 314 310 310 309 310 311 311 312 312
348 341 335 334 334 333 332 330 330 333 334 335 335 335 335 333 331 325 318 313 311 312 312 313 314 316 321 326 330 333 334 336 338 338 339 339 339 339 339 339 338 338 338 338 338 338 338 338 338 337 335 332 330 328 328 331 328 322 327 332 331 332 333 333 335 333 331 327 322 315 309 308 310 319 324 318 314 313 312 311 311 313 313 312 311
348 342 335 333 334 333 331 329 329 331 333 334 334 334 334 332 330 324 319 313 311 312 312 312 313 315 319 324 328 331 333 336 337 338 338 339 339 339 339 338 338 338 338 338 338 337 337 337 336 335 333 329 323 318 318 319 316 321 330 331 329 330 331 332 334 334 333 329 326 318 310 309 308 315 321 318 315 312 311 312 312 312 312 312 311
344 340 334 333 334 333 331 327 328 330 332 333 333 334 333 331 328 323 318 313 310 311 312 312 313 314 317 321 325 327 332 335 336 338 338 339 339 339 339 338 336 337 337 337 337 336 335 334 333 332 328 322 314 309 310 309 313 325 330 328 329 331 332 332 332 333 332 330 327 318 309 309 309 312 317 316 313 311 311 312 312 311 311 312 311
342 337 335 334 333 333 329 325 326 329 331 332 332 332 331 330 326 322 317 312 310 312 312 312 313 313 315 318 323 325 329 333 336 337 338 338 338 338 338 336 334 334 334 334 333 331 331 329 328 325 319 313 308 308 308 310 319 328 330 330 332 332 333 332 331 331 329 327 325 314 308 310 310 311 313 312 311 310 311 311 311 311 311 312 312
342 339 336 334 333 332 325 321 325 327 329 330 330 330 329 327 323 319 315 311 310 311 312 312 312 313 314 316 321 324 327 331 334 336 337 337 337 337 336 335 333 331 331 330 328 327 325 321 319 316 312 308 308 308 307 315 327 331 331 332 332 331 332 332 332 331 328 325 319 311 309 311 311 312 311 311 311 311 311 311 311 311 312 313 313
342 342 338 334 334 329 320 319 322 324 326 327 327 327 325 322 320 317 312 310 310 311 312 312 313 313 313 315 318 322 326 328 331 333 333 334 335 336 336 335 332 330 329 327 325 323 319 313 312 311 309 309 308 308 310 319 327 330 330 330 329 329 330 330 330 331 330 327 319 311 310 311 312 312 311 311 311 311 311 311 312 312 313 312 313
343 344 339 334 332 324 317 317 319 321 322 323 322 322 320 319 317 314 311 310 310 310 312 312 313 313 313 314 316 320 324 326 327 328 328 331 333 334 335 335 332 329 327 326 323 318 313 310 310 310 309 309 308 309 315 323 328 330 331 331 331 331 332 330 328 328 327 324 317 311 311 312 312 311 311 311 310 311 311 312 312 312 312 312 313
344 343 338 334 329 320 315 316 317 319 319 319 318 318 317 316 314 312 310 310 310 310 311 312 313 314 314 314 315 317 320 323 325 325 326 330 332 332 332 333 331 327 326 323 318 313 310 310 309 309 309 309 308 311 320 328 330 331 332 332 332 332 334 333 331 331 326 318 313 310 312 312 312 312 311 311 311 312 311 312 312 312 312 312 312
344 340 336 333 326 317 315 316 316 317 316 316 315 315 314 314 312 311 310 310 310 310 310 312 313 314 314 314 315 315 317 319 323 324 325 327 329 329 328 328 326 322 321 317 313 310 310 309 308 309 309 309 308 313 324 329 331 332 332 332 333 334 334 334 333 331 322 315 312 311 312 312 312 312 312 312 311 312 312 312 312 312 312 312 312
343 338 335 331 322 316 315 315 315 315 315 315 314 314 313 313 313 311 310 310 310 310 310 312 313 314 314 314 314 313 315 318 321 323 323 324 326 326 324 322 320 317 316 313 311 310 309 309 309 309 308 309 308 315 325 330 332 332 332 333 333 334 333 332 331 326 318 315 313 312 313 312 313 312 312 312 312 312 312 312 312 312 313 312 312
342 337 335 328 320 316 316 316 317 316 315 315 315 315 315 314 313 312 310 310 310 310 310 312 313 313 314 314 313 313 314 316 319 322 323 324 325 324 322 319 315 313 313 312 311 310 309 309 309 309 309 309 308 314 324 330 332 332 331 332 333 333 332 330 329 324 317 315 313 312 313 312 313 312 313 313 312 312 312 312 313 313 313 312 312
341 336 332 326 321 318 317 318 318 317 316 315 315 315 315 314 314 312 311 310 310 310 311 312 312 313 314 314 313 314 314 315 316 319 322 323 325 324 322 318 314 313 313 312 312 311 310 309 309 309 309 309 309 313 322 330 332 332 332 332 333 333 333 331 327 321 315 314 313 313 313 312 313 313 313 313 313 312 312 312 312 312 312 312 311
340 333 329 327 324 320 319 320 319 317 316 315 315 315 314 314 314 314 312 311 311 310 311 312 313 314 314 315 314 314 314 314 315 317 320 322 324 323 322 319 315 314 313 314 313 312 310 309 309 310 310 310 310 314 322 328 330 331 332 334 334 334 333 329 321 316 314 313 313 312 312 313 313 313 313 313 312 312 312 312 312 312 311 311 311
336 329 328 329 325 322 321 321 320 319 318 316 314 313 314 314 314 314 313 312 312 312 314 314 315 316 315 315 314 313 313 313 313 315 318 321 323 323 322 320 317 316 315 315 315 313 311 310 310 309 310 310 311 315 321 326 327 330 332 333 332 332 332 327 320 317 315 314 313 312 312 312 312 312 312 312 312 312 311 312 311 311 311 310 310
333 330 332 330 325 323 323 322 321 320 320 317 315 313 313 313 313 313 313 313 313 314 318 317 315 316 315 315 314 313 313 312 313 313 315 319 322 323 322 321 318 318 317 316 316 315 313 311 310 309 310 310 311 314 320 325 327 328 328 329 329 330 331 328 325 323 317 314 312 311 311 311 311 312 312 312 312 312 312 312 311 311 311 310 309
336 335 335 332 327 324 324 322 322 322 322 320 317 315 314 314 313 313 313 313 313 313 320 319 313 315 315 315 315 314 315 314 313 312 313 316 319 321 323 323 321 320 320 319 318 318 316 314 311 310 309 310 311 313 318 323 326 326 328 330 331 331 330 328 328 325 318 313 311 310 310 310 311 312 312 312 311 312 312 312 312 311 310 309 308
339 338 338 336 332 328 326 324 324 324 324 323 321 320 319 318 317 317 317 317 316 315 319 318 315 316 316 315 316 320 322 321 319 315 313 314 315 318 320 323 323 322 322 322 321 320 319 317 314 313 310 309 309 311 316 321 324 327 330 331 332 331 328 328 329 325 317 312 310 310 310 311 311 312 312 312 312 312 312 312 311 311 310 308 308
341 340 340 339 337 334 331 331 331 328 326 325 325 325 324 324 323 323 323 322 321 320 320 318 318 319 319 320 323 327 328 326 326 323 320 319 317 315 317 319 322 323 324 323 323 322 321 319 317 315 314 312 309 309 314 319 322 325 327 328 329 329 326 329 330 324 318 312 309 310 310 311 312 312 313 313 313 312 312 311 311 311 309 308 308
342 341 341 340 339 338 336 337 336 334 332 329 327 327 327 327 328 328 328 327 325 322 322 322 322 322 323 327 328 330 329 327 328 328 325 326 324 320 317 316 317 320 322 323 323 322 322 321 320 318 317 317 313 310 311 315 319 321 322 325 330 330 327 330 330 325 322 317 312 311 311 312 312 312 314 313 314 313 312 311 310 309 308 308 308
342 342 341 341 341 340 339 339 338 337 337 334 331 328 327 329 329 330 330 329 328 325 326 327 327 328 329 331 330 330 330 329 330 329 326 328 329 328 324 319 316 315 317 320 322 321 321 321 322 321 319 320 320 317 315 316 320 323 322 325 332 333 329 331 331 328 326 321 315 312 312 313 314 314 314 314 314 313 312 310 309 309 308 308 309
343 342 342 342 341 341 340 339 339 338 338 337 336 332 330 331 332 332 332 332 332 330 331 331 332 333 332 333 331 329 330 331 330 329 328 329 329 331 330 326 321 316 314 316 318 320 320 319 321 322 321 322 325 325 323 321 324 328 325 325 332 332 331 332 332 330 326 322 318 314 315 315 315 315 315 315 314 311 310 310 309 309 309 310 311
343 342 342 342 341 341 340 340 339 339 338 338 338 336 335 335 335 335 335 334 334 334 334 334 334 334 334 334 333 331 332 332 331 330 330 330 329 331 333 331 327 321 317 314 314 317 320 320 319 321 324 326 330 331 331 330 330 332 329 328 333 333 332 332 331 330 328 325 321 318 318 318 318 317 317 317 314 310 310 309 309 309 311 312 314
342 341 341 341 340 340 339 339 339 338 338 338 338 338 337 336 336 336 336 336 336 335 334 334 334 333 333 334 334 333 333 333 333 332 332 331 330 331 332 332 331 327 323 317 315 317 320 323 322 321 323 327 334 336 335 335 333 334 332 330 333 334 333 331 331 332 330 328 324 321 320 320 321 320 319 317 313 311 309 309 310 311 312 314 316
341 341 340 340 339 339 338 338 338 338 337 338 338 338 337 337 336 335 336 336 335 335 334 334 334 332 332 334 334 334 333 333 334 333 333 332 331 332 332 332 332 332 329 323 321 322 322 325 327 324 322 326 334 336 335 336 333 333 333 332 332 333 333 332 332 332 331 329 325 323 322 322 322 321 320 317 313 311 310 310 311 313 315 316 318
341 340 339 339 338 338 338 337 336 337 337 338 338 338 337 337 336 334 335 335 334 334 334 334 334 333 332 332 333 333 332 333 333 333 333 332 332 332 332 332 331 332 332 329 326 326 327 326 328 326 325 328 333 334 335 335 333 332 333 333 332 331 332 332 332 332 331 330 327 325 325 324 322 322 320 316 312 311 310 311 313 315 317 318 319
340 339 338 338 338 338 337 336 336 337 337 337 336 337 337 337 337 336 334 334 334 333 333 333 333 332 332 332 332 331 331 331 331 332 332 332 332 332 332 332 332 332 331 331 329 328 328 329 329 329 327 327 329 330 333 334 333 332 332 333 332 330 332 332 331 331 330 330 329 328 327 325 323 322 318 314 312 312 311 313 315 317 318 319 321
340 339 338 338 338 337 336 336 336 336 336 336 335 335 336 336 337 335 332 332 332 331 331 331 331 332 331 331 330 329 328 328 329 330 331 331 331 331 332 332 332 332 331 331 331 330 328 329 330 331 328 326 328 329 330 332 333 333 331 332 332 331 332 332 331 331 329 329 330 330 330 327 323 320 317 315 313 313 313 315 317 319 320 322 323
341 339 338 338 337 336 335 335 336 336 335 335 335 335 335 334 334 332 331 332 331 330 331 331 332 331 330 330 329 329 328 328 329 330 330 330 330 330 330 330 331 332 331 330 331 331 330 329 329 331 329 327 328 328 328 331 333 333 331 331 332 332 332 332 330 330 330 330 331 331 331 329 324 318 316 316 315 314 316 317 319 322 324 325 325
341 339 338 337 337 336 335 335 335 336 336 335 335 334 333 331 331 332 333 333 331 331 331 331 332 331 330 330 330 330 330 329 329 330 330 329 328 328 328 329 329 330 331 330 329 330 330 329 329 329 328 327 327 328 328 330 333 333 331 331 332 332 333 332 329 330 332 331 331 332 331 330 328 323 320 319 316 315 317 320 323 326 327 327 327
340 340 339 338 337 337 336 335 336 336 336 335 334 333 332 331 332 333 334 335 333 332 330 329 330 330 331 331 332 332 331 330 329 329 329 328 327 326 327 327 328 329 330 329 329 329 329 329 329 328 328 328 328 328 329 331 333 333 331 331 332 332 332 332 330 331 333 332 331 332 331 330 329 328 327 324 320 317 317 321 326 327 328 328 328
339 339 339 339 338 338 337 336 336 335 335 335 334 334 333 332 334 335 335 334 332 331 330 328 327 327 329 330 332 332 331 331 330 330 329 328 328 327 327 327 327 327 327 327 327 328 329 329 329 329 329 330 329 329 330 332 333 333 332 331 332 332 332 332 331 331 332 332 331 331 331 330 330 329 329 328 325 321 319 321 325 326 328 328 328
339 338 338 338 337 337 337 336 336 336 335 335 335 334 333 333 334 334 333 332 330 329 330 328 326 326 326 328 330 332 332 332 332 331 331 331 330 329 328 327 327 327 326 326 327 327 329 330 330 329 329 330 330 330 330 332 333 333 332 331 332 332 332 333 332 331 332 331 330 331 331 330 330 330 329 330 329 326 324 324 325 325 327 328 328
340 339 339 339 337 337 337 336 336 336 336 336 336 335 335 334 334 334 333 333 332 332 331 329 327 327 327 327 329 331 332 332 332 332 332 332 332 330 330 329 329 329 328 327 326 327 328 330 330 330 330 330 331 331 330 331 332 332 332 331 332 332 332 332 332 330 330 330 329 329 330 330 330 330 330 330 329 329 327 327 327 325 326 327 327
340 340 340 339 339 338 338 337 336 335 336 337 337 336 336 335 334 333 333 333 334 333 332 331 329 327 328 328 327 329 331 331 332 332 331 332 332 331 330 330 330 330 330 329 328 326 327 327 327 328 330 330 330 331 331 330 330 331 331 331 331 332 332 332 332 331 329 330 328 328 330 330 330 330 330 330 329 329 328 327 328 326 325 326 326
339 339 339 339 339 339 339 338 337 337 337 337 337 337 337 336 336 336 335 334 332 331 331 331 330 329 330 329 327 327 330 330 330 331 331 331 332 332 331 330 329 330 330 330 330 328 327 326 326 327 329 330 330 331 331 331 330 331 331 331 331 332 332 332 332 331 329 330 328 327 330 330 330 330 330 329 328 328 328 328 328 326 325 326 325
340 339 339 339 339 339 339 338 339 338 339 339 338 338 337 337 337 337 337 336 332 331 331 330 328 329 330 330 329 329 330 331 332 332 332 332 332 332 332 331 330 331 331 331 331 331 329 329 328 329 330 330 330 330 330 331 331 331 331 331 332 332 332 331 331 330 328 329 328 326 329 330 330 330 329 329 329 328 328 328 328 327 326 324 323
340 340 339 339 339 338 338 338 339 339 339 339 338 338 337 336 337 337 337 337 335 334 333 332 331 329 328 329 330 331 332 333 334 334 334 334 334 333 333 333 333 332 332 331 332 332 331 331 330 330 331 331 330 330 330 331 331 331 330 331 332 331 331 331 331 329 327 329 329 327 330 331 330 330 330 330 330 329 328 328 328 328 326 325 324
340 339 337 337 337 337 338 338 338 338 338 337 338 338 337 336 336 336 336 337 337 336 335 335 334 332 330 330 329 329 331 333 334 335 335 335 335 334 334 334 334 334 334 333 333 333 333 333 332 331 331 331 331 331 330 330 331 331 330 331 332 332 331 331 331 330 328 329 329 328 330 331 331 330 330 330 330 329 329 329 328 328 327 327 326
339 338 338 337 336 336 337 337 337 337 337 337 337 337 337 337 336 336 336 336 336 335 335 335 334 333 333 333 331 328 328 331 333 334 334 334 333 333 333 333 333 333 333 334 333 334 334 334 333 332 332 332 332 331 330 330 331 332 331 331 332 332 331 330 330 330 329 329 329 328 329 330 331 330 330 330 329 329 329 329 329 328 327 327 327
338 337 337 336 336 336 336 337 337 337 337 337 337 337 337 337 337 336 336 335 335 335 334 334 335 335 334 334 335 333 332 332 332 333 334 334 334 334 333 332 332 332 332 334 334 334 333 334 334 334 333 333 333 332 331 331 330 331 331 331 331 330 330 330 329 329 329 329 329 328 327 329 330 330 330 329 329 329 329 329 329 327 327 327 327
335 335 334 334 334 334 334 335 335 336 336 337 337 337 337 337 337 336 336 335 335 335 335 335 336 335 334 334 334 334 334 333 333 333 334 334 335 335 334 333 333 333 333 333 333 332 332 332 332 332 332 332 333 333 332 332 331 331 331 331 330 330 329 329 329 329 329 329 329 329 328 327 328 329 329 329 329 329 328 329 328 328 328 326 326
333 332 332 332 333 332 332 332 333 334 335 335 336 336 337 336 336 336 336 335 335 335 336 336 336 335 334 333 333 333 333 333 333 334 335 334 334 335 334 334 334 334 332 330 331 331 331 332 331 330 330 332 333 333 332 332 332 332 331 330 330 330 330 329 328 328 329 329 329 329 328 327 327 328 329 329 329 329 328 328 328 328 328 327 326
331 331 331 331 331 330 330 330 330 331 332 333 333 334 335 335 335 336 336 335 335 335 335 335 335 334 334 333 333 333 333 333 333 333 334 334 334 334 334 334 334 334 332 331 331 331 331 332 332 331 331 332 332 332 332 332 332 332 331 330 330 330 330 329 328 328 328 328 328 328 328 328 328 328 328 329 329 329 328 328 328 328 328 327 326
329 330 330 329 328 327 327 327 327 327 328 329 330 331 332 334 335 335 334 334 333 333 334 334 334 334 334 333 332 332 333 333 333 333 334 333 333 333 333 334 334 333 333 332 332 332 332 332 332 332 332 332 332 332 333 332 332 332 332 331 330 330 330 329 329 329 328 327 327 327 327 328 329 329 329 329 329 329 329 328 328 329 328 327 327
325 326 326 325 324 324 324 324 324 324 325 326 327 328 329 331 333 334 334 333 333 332 332 333 333 333 333 333 333 333 333 333 333 333 333 333 332 333 333 333 333 332 332 332 332 332 332 332 332 332 333 332 331 332 333 332 332 332 332 332 331 330 330 329 329 329 328 327 327 326 325 326 327 328 328 329 329 329 328 328 328 328 328 328 327
323 323 323 322 321 321 322 321 321 321 322 323 324 325 326 328 330 332 333 333 332 331 331 331 332 332 332 332 332 332 332 332 332 332 333 333 332 332 332 333 333 332 332 331 332 332 332 332 332 332 332 332 332 332 332 333 332 331 331 332 331 330 330 329 329 329 328 327 326 326 324 324 326 327 328 328 329 328 328 328 328 328 328 328 327
Wind_Speed
15 16 17 17 15 15 16 18 18 17 16 16 15 14 14 13 12 12 12 12 13 13 14 15 16 16 16 17 18 19 19 18 17 17 16 16 16 16 15 15 14 14 14 14 13 14 14 13 13 12 13 13 13 13 14 14 15 16 18 18 19 19 20 18 16 14 11 9 9 9 10 11 13 15 14 13 14 15 15 15 15 15 15 15 15
16 16 17 18 16 15 16 17 17 17 16 15 15 14 14 13 12 12 12 12 12 13 14 15 16 16 16 16 17 17 17 17 17 17 17 16 16 16 15 15 15 15 14 14 13 14 13 13 12 12 13 13 13 13 14 15 16 18 19 19 19 19 20 20 18 16 14 12 9 9 10 12 13 13 13 13 13 15 16 17 17 16 17 17 16
13 16 18 19 16 16 16 17 17 16 16 15 14 13 13 12 11 11 12 12 12 13 14 15 15 15 16 16 17 16 16 16 17 17 17 17 17 16 16 16 15 15 14 14 13 13 13 12 12 12 13 13 13 14 14 15 17 19 19 18 18 19 20 19 18 16 16 16 14 10 11 12 13 13 13 13 14 16 19 19 18 17 18 18 18
11 16 20 19 17 16 16 16 16 16 15 15 14 13 12 11 10 10 11 12 12 13 13 14 15 15 16 16 16 16 16 16 17 17 17 17 17 16 16 16 15 15 14 13 13 13 12 12 12 12 12 13 13 14 14 15 17 17 18 19 20 21 21 20 18 17 17 18 18 13 11 12 14 15 16 17 18 19 20 19 18 18 19 19 19
10 16 19 19 18 16 16 16 16 15 15 14 13 13 12 11 10 10 11 12 12 13 13 14 14 15 16 16 16 15 16 16 17 17 17 16 16 16 15 15 15 14 14 13 13 12 11 11 11 12 12 13 13 13 13 14 15 16 19 21 21 21 20 19 18 17 16 17 18 15 12 14 16 17 17 18 19 20 19 18 18 18 19 19 20
8 14 19 18 18 16 16 16 15 15 14 14 13 12 12 10 9 9 10 12 12 13 13 13 14 15 15 16 15 15 15 16 16 16 16 16 16 15 15 15 14 14 13 13 11 11 11 10 11 11 11 11 11 10 10 11 12 16 20 21 20 19 18 17 15 14 13 13 16 14 12 17 18 18 17 17 18 19 19 18 18 18 19 19 19
7 14 19 18 18 17 16 15 15 15 14 13 13 12 11 10 9 8 10 11 12 12 13 13 13 14 14 15 15 15 15 15 16 16 15 15 15 15 14 14 13 12 11 11 10 9 9 9 9 10 9 9 9 8 9 10 13 20 22 20 20 18 17 15 13 12 10 9 12 11 12 18 18 19 17 17 18 19 19 18 18 18 18 19 18
8 17 18 17 17 16 15 15 15 14 14 13 12 12 11 9 8 8 9 11 12 12 13 13 12 13 13 13 14 14 14 15 15 15 14 14 14 14 13 13 12 11 10 10 9 7 7 7 7 8 8 8 8 10 11 13 19 23 22 19 18 17 16 14 11 10 9 7 7 7 12 17 19 19 17 17 18 18 17 17 17 17 17 18 18
11 17 16 15 15 15 15 14 15 14 14 13 12 11 10 9 8 8 9 11 12 12 13 12 12 12 12 12 13 13 13 14 14 14 13 13 12 12 12 11 10 10 9 8 7 7 6 6 6 7 8 9 11 12 13 18 24 24 21 19 18 18 17 14 11 8 7 7 5 7 13 17 19 19 18 18 18 16 16 16 16 16 16 16 16
14 16 14 14 14 14 14 14 15 15 14 13 12 11 9 8 8 8 9 11 12 12 13 12 11 12 12 12 12 12 12 13 12 12 12 11 10 10 10 9 9 8 7 6 6 6 6 6 6 8 9 11 13 14 16 22 25 23 22 20 19 18 16 13 11 7 4 4 6 10 14 16 19 19 18 17 17 16 16 16 15 15 14 14 15
15 15 14 15 13 13 14 15 15 15 14 12 11 10 9 9 9 9 10 11 12 12 12 11 11 11 12 11 11 11 11 11 11 11 10 10 9 8 8 7 7 6 6 5 5 6 6 6 7 9 10 12 13 15 19 23 24 23 22 21 19 17 15 12 10 8 3 2 5 9 12 15 18 18 17 16 16 15 15 14 14 13 13 13 13
13 13 15 16 14 13 15 16 16 15 13 12 11 10 10 10 10 10 10 11 12 12 11 10 10 11 12 11 10 10 10 10 9 9 9 8 8 7 6 5 5 5 5 5 5 6 7 7 8 9 11 12 13 17 22 24 24 23 22 20 19 17 15 12 10 8 5 4 5 8 12 15 16 16 16 15 15 14 13 13 12 12 11 11 11
13 13 16 16 14 14 15 16 16 14 13 13 12 11 11 11 11 10 10 11 11 11 11 10 10 11 11 11 11 10 9 9 8 7 8 7 7 5 5 5 4 4 4 5 6 7 8 8 9 10 11 12 13 18 24 25 25 23 22 21 18 17 13 9 7 3 2 5 7 9 12 14 15 14 14 14 13 12 11 11 10 10 9 10 9
15 17 17 16 15 15 16 16 16 15 14 14 13 12 12 11 11 10 11 11 11 11 10 10 10 11 11 11 11 10 9 9 8 7 7 7 7 5 5 5 4 4 5 7 8 8 9 9 9 10 11 12 13 19 23 25 25 23 22 20 18 17 12 8 4 1 3 7 9 10 11 13 13 13 12 12 11 10 9 9 8 8 7 8 8
16 18 17 15 17 17 17 16 16 15 15 14 13 13 12 11 10 10 10 10 11 11 10 10 10 11 11 10 9 10 11 10 9 8 8 8 7 5 5 5 4 6 7 9 9 10 10 9 10 10 11 11 13 18 22 24 24 22 21 20 18 15 11 7 4 1 4 7 8 9 10 11 11 11 10 10 9 8 7 7 7 6 6 6 6
14 16 16 16 17 18 18 17 16 16 15 15 14 13 12 11 10 10 10 10 10 10 10 10 10 10 10 10 9 9 10 10 10 8 8 8 7 5 5 5 6 7 8 9 10 10 9 9 9 10 11 10 13 17 20 23 23 21 21 20 18 14 10 6 4 2 5 8 9 9 8 8 9 8 8 8 7 6 6 5 5 5 5 5 4
14 15 17 17 17 18 18 18 17 16 15 15 13 13 12 11 11 10 9 9 9 10 10 9 9 10 10 10 9 8 8 9 9 8 8 8 7 6 5 5 6 7 7 8 9 10 9 8 9 9 9 9 11 16 19 22 22 21 21 19 17 14 10 6 4 4 5 7 7 7 6 6 6 6 6 6 5 4 4 4 4 3 3 3 3
15 16 17 16 16 18 18 18 17 16 15 15 14 12 12 12 11 11 10 9 9 9 9 9 9 9 9 9 9 7 6 6 7 8 7 7 7 6 5 4 5 6 6 7 8 9 9 8 8 8 8 8 10 15 19 20 20 21 20 18 17 14 10 7 6 5 6 6 5 5 5 4 3 4 3 4 4 3 2 2 2 1 1 2 3
18 18 16 14 15 16 16 16 16 16 15 15 14 13 13 12 12 11 11 10 9 10 9 10 10 9 10 10 9 8 6 5 6 6 7 7 6 6 6 5 4 5 5 6 7 8 8 8 7 7 7 8 10 15 17 17 18 20 18 17 16 12 9 7 6 5 4 4 4 4 3 2 2 2 2 2 2 2 1 0 1 0 1 1 2
21 18 17 15 14 15 14 15 15 15 15 15 14 14 13 13 13 12 11 11 10 10 9 10 11 11 12 11 10 9 7 6 5 5 6 7 6 5 5 4 4 4 5 5 6 7 7 7 7 7 7 7 9 12 15 16 17 18 17 16 14 11 8 5 3 2 3 3 2 3 2 2 2 2 2 2 2 2 2 2 2 1 1 1 2
19 17 17 16 15 14 14 15 15 14 14 15 14 14 14 14 14 13 12 11 10 9 9 10 12 12 12 11 10 9 8 6 4 3 3 5 7 6 5 4 4 4 4 4 4 5 6 7 7 7 7 7 7 9 13 16 17 17 17 15 12 9 7 5 3 1 1 2 2 2 2 2 3 3 3 3 3 3 3 3 2 2 2 2 3
18 18 17 16 16 15 15 14 14 14 14 14 14 14 14 14 14 13 13 12 10 9 9 11 12 12 10 9 8 7 6 5 3 3 2 2 5 7 7 6 5 5 4 4 3 4 5 6 7 8 8 8 7 8 11 14 15 15 15 14 12 8 7 4 3 3 2 2 3 3 3 3 4 4 4 4 4 4 3 3 3 2 2 2 3
17 18 17 16 15 14 14 13 13 12 13 13 13 14 13 14 13 12 12 12 11 10 10 11 12 11 9 7 6 6 6 4 3 3 3 3 2 4 6 8 8 7 7 6 5 4 5 6 7 8 8 8 8 8 10 12 12 11 11 11 10 6 5 2 3 3 2 2 3 3 4 4 4 5 5 5 5 5 4 4 4 3 2 2 3
15 14 15 15 13 13 13 12 12 11 12 11 12 13 13 13 12 12 11 11 11 11 10 9 9 8 7 6 6 5 4 4 4 4 4 4 3 4 5 7 9 10 9 8 7 6 6 6 7 7 8 8 8 9 9 9 7 6 7 9 8 3 5 4 5 4 2 4 4 4 5 5 5 6 6 6 6 6 5 4 3 2 2 2 3
13 12 14 14 14 13 13 13 12 11 11 10 10 11 12 12 11 10 10 10 10 11 10 7 7 6 5 6 6 5 4 5 6 6 5 5 5 6 6 5 7 9 11 10 9 8 7 7 7 8 9 9 8 8 8 8 5 2 4 9 9 4 6 6 7 6 6 6 6 6 6 6 6 7 8 7 7 6 4 3 2 1 2 2 3
13 13 13 13 14 13 12 11 11 12 11 10 10 10 11 11 9 9 9 9 9 10 9 6 6 6 5 5 5 5 5 7 7 7 7 6 7 8 7 6 6 8 10 11 11 10 9 8 8 9 10 9 8 7 7 7 3 4 5 7 7 4 6 6 9 9 8 7 7 7 7 7 7 8 9 8 7 5 3 2 2 2 1 2 3
14 13 11 12 13 12 11 9 10 12 11 10 9 9 10 9 8 8 9 9 8 7 6 6 7 7 6 6 6 6 7 8 8 9 8 7 9 9 9 8 7 7 9 11 11 11 10 10 9 10 10 9 8 7 6 4 3 4 5 5 6 4 6 8 10 9 9 7 7 8 8 8 9 8 9 9 7 5 3 2 2 1 1 2 3
14 14 12 12 12 11 10 9 9 10 10 10 9 9 9 8 7 7 8 8 7 6 5 6 7 7 7 8 8 8 7 8 8 9 9 9 9 10 11 10 9 9 9 10 12 11 11 9 9 10 11 10 8 6 5 5 6 6 6 4 5 4 8 10 11 10 9 7 6 7 8 8 9 9 9 9 8 6 4 2 1 0 1 2 4
13 14 13 13 12 11 11 9 10 9 9 10 10 11 9 8 7 6 6 6 5 4 4 5 7 6 7 8 9 9 8 9 10 10 10 11 11 11 12 12 11 11 9 10 11 12 12 8 7 9 11 10 8 7 7 9 10 10 9 8 5 7 11 12 12 11 11 8 6 6 7 8 9 9 9 8 7 6 4 2 2 2 2 3 3
12 14 14 13 12 11 11 10 10 9 10 10 10 11 9 8 6 6 6 6 5 5 4 5 7 7 8 7 7 8 7 9 11 11 11 11 11 11 12 13 12 13 11 10 10 12 11 9 9 10 11 12 12 10 11 13 13 12 12 10 10 11 11 12 11 12 13 11 9 8 8 9 9 9 8 7 7 6 4 3 3 3 3 3 3
13 15 15 14 13 11 11 10 10 10 10 9 9 9 8 7 6 5 5 6 6 4 4 5 6 7 8 7 6 6 7 9 10 11 11 11 11 11 12 13 13 14 13 12 12 13 13 11 12 13 14 15 15 14 14 15 14 13 14 12 14 15 11 12 12 13 15 13 12 11 9 9 9 9 7 6 6 5 4 3 3 3 3 3 3
12 14 14 14 14 12 10 10 10 10 9 9 9 10 9 7 6 5 5 6 6 4 4 5 5 6 7 6 6 7 8 9 10 11 11 11 11 11 12 13 14 14 14 13 14 15 16 15 15 17 18 16 16 16 18 18 16 15 15 13 15 17 15 15 14 14 15 14 14 12 11 9 8 8 7 5 5 5 4 3 3 3 3 3 3
13 12 12 13 13 12 11 10 9 9 10 10 10 10 9 7 6 6 5 6 5 3 3 3 3 4 5 5 5 7 8 9 10 10 11 11 11 12 13 13 13 15 16 15 16 17 18 17 17 19 20 19 18 18 19 20 20 18 15 14 16 19 18 17 17 16 15 14 15 13 12 10 7 7 6 5 5 5 4 3 3 3 3 3 3
13 12 11 11 11 10 11 10 9 8 9 10 9 8 6 5 6 5 3 3 1 1 1 2 4 4 5 6 6 7 8 9 10 10 11 11 11 12 12 13 13 15 17 17 17 17 19 19 18 18 20 21 20 19 19 20 22 21 17 15 17 19 18 17 16 16 14 14 15 14 14 11 7 6 5 5 5 5 5 4 3 3 3 3 2
14 12 11 10 9 8 8 9 8 7 7 8 8 6 4 4 3 3 2 1 0 1 1 2 4 5 6 7 7 7 8 9 10 10 11 12 12 12 12 13 14 15 17 18 18 18 19 19 19 19 20 21 21 19 19 20 23 23 20 17 16 17 18 16 15 16 15 14 14 15 14 13 9 7 5 5 5 6 6 4 4 5 4 4 3
13 12 11 11 10 8 7 8 7 7 7 7 7 6 5 4 3 3 3 2 2 3 4 4 5 6 7 7 7 7 8 9 9 10 11 12 12 12 12 13 14 16 17 18 19 19 19 20 19 20 21 21 21 20 20 20 21 21 20 19 18 19 20 19 17 17 16 15 13 14 15 14 11 9 6 6 6 6 6 5 5 6 6 5 4
12 10 10 10 10 9 8 9 9 8 8 7 7 6 5 5 4 5 4 4 4 3 4 5 5 6 7 7 6 6 8 8 9 10 11 12 12 13 13 14 15 16 17 18 19 19 20 20 20 20 21 21 21 21 22 22 21 20 20 22 22 21 22 22 19 18 19 19 15 14 16 16 13 11 8 7 7 7 6 6 6 7 7 6 5
14 11 9 8 8 8 8 10 10 9 9 8 7 6 5 5 5 6 6 5 4 4 5 7 6 6 8 7 7 7 8 9 10 11 11 12 13 13 14 15 16 16 17 18 19 20 20 21 21 21 21 21 21 22 22 23 24 22 22 24 24 22 23 23 22 20 20 20 18 17 17 17 16 13 9 8 9 8 7 7 7 8 8 7 6
15 13 10 9 8 7 7 8 9 9 8 8 7 6 5 5 5 6 6 5 5 6 7 9 9 9 9 8 8 9 10 10 10 11 13 13 14 15 15 15 16 17 18 19 20 21 21 22 22 22 21 21 22 23 23 23 25 24 23 25 26 24 24 24 23 21 21 20 20 20 18 17 17 14 11 10 10 9 8 8 8 9 9 8 8
14 13 11 10 9 8 7 6 6 6 6 6 7 7 6 5 5 6 6 4 4 6 8 9 10 11 11 10 10 11 11 11 11 12 14 14 14 15 15 16 17 18 18 19 20 21 21 23 23 23 23 23 23 23 24 23 25 26 26 26 27 27 27 26 24 22 22 21 21 21 18 17 17 15 14 12 11 10 9 8 8 9 9 9 9
15 14 12 11 11 10 8 7 5 5 5 5 6 6 6 6 6 7 6 6 6 8 9 10 10 11 12 13 13 13 13 13 13 14 15 16 15 14 15 17 18 19 19 19 19 20 21 22 22 23 24 25 25 24 24 24 26 26 27 27 28 28 28 27 25 24 23 22 23 23 19 18 19 16 14 13 12 11 10 9 9 9 10 10 10
15 13 13 11 11 10 9 8 5 5 5 5 5 6 6 6 7 8 7 7 8 9 9 9 10 10 11 12 12 12 13 14 15 15 16 17 17 16 16 17 18 20 20 19 18 19 21 21 22 24 24 26 27 26 26 27 28 28 27 28 28 29 29 27 25 25 25 23 23 24 19 18 19 17 15 14 14 13 11 10 10 10 10 11 11
14 13 12 10 10 10 9 9 7 5 5 4 5 5 5 6 7 7 7 8 8 9 9 9 11 12 11 11 10 11 13 14 15 15 17 18 18 18 18 18 18 19 20 20 19 20 21 21 23 24 24 26 27 28 29 29 31 30 27 28 28 28 29 28 27 27 26 25 23 21 20 20 20 18 17 16 16 15 13 12 12 12 12 11 12
13 13 13 12 12 10 9 8 7 7 6 4 4 4 4 5 5 5 5 7 7 8 8 9 10 11 10 10 10 10 12 13 13 14 16 16 18 19 20 21 20 20 20 20 20 20 21 22 23 24 24 25 27 29 30 30 32 31 28 27 26 24 25 28 29 28 27 26 24 22 22 22 22 20 20 19 18 17 15 14 15 15 14 12 12
11 11 11 11 11 10 8 8 7 7 6 5 5 5 6 5 5 5 6 7 7 7 7 7 8 9 9 9 9 9 11 11 12 13 14 14 16 18 19 20 19 19 19 19 20 20 21 22 23 24 24 25 27 28 30 31 33 33 32 29 23 21 24 26 26 26 27 27 26 25 24 23 24 24 23 21 20 18 17 17 18 17 15 14 13
9 9 9 8 6 4 3 5 7 9 8 6 6 6 6 6 5 6 6 7 7 7 7 7 8 10 11 11 11 12 12 12 10 11 12 14 15 17 18 18 18 20 19 19 20 21 21 22 22 24 25 26 27 29 31 32 33 34 36 34 28 24 24 23 22 20 23 28 28 27 25 24 24 25 25 23 21 20 19 18 19 19 17 15 14
8 8 7 5 2 3 6 7 7 9 10 10 9 9 8 6 5 5 5 6 7 7 8 9 11 12 13 13 14 14 14 14 12 11 12 14 16 17 18 18 20 21 20 20 22 22 22 22 22 24 25 26 27 29 31 31 32 34 35 35 36 33 26 21 21 19 19 24 27 26 26 25 25 26 27 25 22 21 20 19 20 20 19 17 15
5 5 4 3 4 5 5 6 7 9 10 12 12 12 11 9 8 6 5 5 6 7 8 9 11 12 12 13 14 14 13 13 13 13 13 16 17 18 19 19 20 21 20 21 22 22 22 23 24 24 26 28 28 29 29 29 31 34 34 34 36 37 31 22 21 22 19 20 23 24 24 23 24 26 27 26 23 21 21 20 21 20 19 18 17
2 2 3 3 4 3 3 4 5 5 5 7 9 11 11 11 10 9 7 6 6 7 8 9 10 11 11 11 12 13 13 13 13 14 15 17 18 19 20 19 19 20 21 22 23 22 23 25 25 25 27 28 28 28 28 28 30 32 34 35 34 35 35 28 23 22 20 18 19 21 21 20 22 24 26 26 24 22 22 21 21 21 19 18 19
3 3 5 3 1 2 2 2 2 1 1 1 4 8 10 11 11 11 10 10 10 9 9 10 11 11 11 10 9 10 11 12 12 13 14 16 17 18 20 20 20 21 22 23 23 24 26 27 27 27 27 26 26 27 28 28 28 29 31 34 34 33 33 31 27 24 22 20 19 18 18 19 21 23 26 27 26 24 23 22 21 21 19 19 19
4 5 4 1 2 2 4 6 7 5 2 0 0 2 6 9 11 11 12 13 13 13 12 11 12 12 12 10 9 9 10 11 12 13 13 14 15 16 18 21 21 21 22 24 25 26 28 27 27 28 27 25 24 24 25 27 27 27 29 32 33 31 30 30 30 29 27 25 24 22 20 19 19 20 23 26 26 24 23 22 21 21 19 19 19
Wind_Direction
162 163 161 154 155 155 145 139 138 137 137 135 131 126 116 107 99 90 91 91 86 81 76 75 77 84 90 93 96 97 96 95 95 95 97 98 98 98 96 95 93 90 89 87 87 87 87 87 89 91 92 91 92 94 93 92 93 93 90 88 86 83 79 74 71 69 67 65 58 59 69 74 72 76 78 75 73 80 85 86 86 85 86 86 85
159 166 166 154 154 153 146 138 138 138 137 136 133 128 117 110 102 94 96 97 90 84 81 79 81 87 92 94 96 97 95 94 94 94 94 96 96 95 93 91 90 89 89 89 88 88 88 88 89 91 91 92 94 93 92 93 95 95 89 86 86 84 80 74 67 65 66 65 61 65 73 74 74 73 75 76 75 81 89 91 88 85 84 86 86
151 166 167 152 152 149 144 138 137 139 137 138 134 129 119 113 105 98 100 103 97 89 85 83 84 89 95 96 96 96 96 95 94 93 93 93 94 92 91 90 89 89 88 88 88 88 89 90 90 90 92 93 92 92 93 94 98 95 87 84 85 82 77 71 62 57 64 66 62 65 76 79 78 77 80 84 83 88 94 93 89 85 83 85 87
142 160 165 151 147 145 140 136 136 139 138 139 135 129 122 117 108 101 104 108 103 95 91 87 87 91 97 97 96 96 96 96 94 94 94 93 93 91 90 89 89 89 88 87 86 87 88 90 90 89 92 95 93 93 93 97 101 93 85 85 83 77 72 69 62 52 55 59 57 61 79 86 87 85 87 90 90 92 95 94 92 88 86 87 89
140 154 165 151 143 141 137 135 135 138 138 138 135 130 124 120 111 105 108 111 108 101 96 93 91 93 99 99 97 98 97 95 95 95 95 94 94 93 91 91 90 90 90 89 88 89 89 90 89 88 91 92 93 94 96 102 102 93 91 89 81 76 71 67 64 54 48 49 50 56 81 91 91 90 89 91 92 93 93 94 95 93 91 90 89
152 156 165 152 142 138 134 133 133 136 137 138 134 131 128 122 115 109 112 115 113 107 101 98 95 95 101 103 101 100 99 97 96 97 98 98 97 96 95 94 92 92 92 90 89 89 88 88 86 86 86 85 88 91 100 106 102 100 97 90 82 78 74 69 65 60 49 46 46 47 78 94 92 92 92 93 94 94 93 93 94 93 92 90 88
166 164 162 152 143 136 131 130 132 135 136 138 134 132 130 125 118 112 115 118 117 111 105 102 100 100 103 107 105 103 103 101 99 100 100 101 100 100 98 96 94 91 91 90 89 88 88 85 82 81 78 78 81 88 98 102 104 108 102 93 89 84 79 74 71 75 69 55 42 39 81 97 97 96 94 94 94 92 92 92 92 90 88 89 87
152 161 158 150 141 132 128 128 131 134 135 136 135 134 132 126 119 115 118 122 122 115 108 105 104 104 106 110 110 108 107 105 103 103 104 104 104 105 102 98 95 90 88 86 86 84 86 85 83 82 81 83 86 93 97 101 110 112 107 99 93 85 80 78 83 98 102 81 45 51 93 101 100 99 97 96 93 92 91 88 88 87 86 87 86
141 152 152 146 137 128 125 127 131 133 135 135 134 134 133 128 122 120 123 127 127 120 112 108 107 107 109 112 115 113 111 110 108 108 108 108 108 106 102 98 93 88 84 80 76 70 73 81 88 91 92 93 96 99 100 109 115 113 108 101 93 87 86 86 94 105 100 91 75 89 103 104 104 101 100 100 98 97 93 89 88 86 84 83 82
122 137 144 141 132 127 123 126 131 133 134 134 134 134 135 131 127 128 130 133 132 125 118 113 110 109 111 114 120 121 118 116 115 115 114 112 110 105 102 98 93 88 83 75 66 59 63 76 89 96 96 97 101 101 106 117 118 113 109 104 98 94 95 97 100 98 76 82 87 94 103 107 107 106 105 104 102 99 94 91 88 85 83 80 76
110 122 131 135 128 125 124 128 129 130 132 132 134 134 134 132 132 135 137 138 136 130 123 118 113 111 111 113 122 127 124 120 121 122 120 116 112 110 110 106 96 86 82 68 56 60 67 79 89 94 98 102 103 104 112 121 118 112 109 104 101 99 100 105 113 125 166 161 92 97 110 112 110 109 109 106 103 99 97 93 89 85 81 76 72
113 117 128 132 126 127 126 127 127 127 130 130 132 131 132 132 136 140 142 141 137 134 126 122 118 113 112 113 120 127 127 125 126 124 120 119 115 116 120 118 102 84 77 65 65 74 77 81 87 95 103 105 105 111 118 120 116 111 107 103 103 102 102 107 118 136 177 179 127 118 121 118 114 112 111 108 105 102 99 97 92 87 81 76 72
115 123 132 132 127 130 128 127 126 127 127 127 128 129 132 135 140 141 143 142 137 136 131 129 123 119 117 116 121 126 130 129 127 121 115 119 122 124 125 127 115 94 85 83 87 85 81 79 86 97 106 109 110 120 124 120 115 110 107 105 106 108 108 106 103 107 158 150 136 129 127 123 117 113 112 110 109 106 103 99 95 87 81 79 73
118 129 134 135 132 131 128 127 124 124 124 126 128 129 133 136 138 139 142 141 136 137 138 136 129 126 124 121 123 123 125 125 124 122 119 125 133 138 129 128 121 108 105 102 97 87 81 78 87 100 109 112 115 127 128 120 115 113 112 112 112 113 113 109 97 54 115 127 130 130 130 123 117 116 115 115 114 110 108 103 97 90 84 80 70
119 129 136 139 135 133 129 125 122 122 125 128 131 131 133 134 133 133 138 139 136 141 143 140 134 133 130 127 128 120 119 122 125 126 124 128 137 145 130 124 120 112 111 107 99 88 81 80 90 102 111 113 117 131 129 121 118 116 116 116 115 115 117 119 112 101 107 117 129 132 131 124 119 122 123 121 120 117 115 109 103 97 88 79 66
119 130 141 144 138 134 130 127 125 124 129 132 134 132 131 130 128 129 135 139 139 143 146 144 140 139 137 134 131 119 118 123 129 133 130 131 140 148 132 120 117 114 112 108 101 93 86 85 94 103 111 113 120 133 133 126 123 120 118 117 116 118 123 126 112 99 103 112 125 129 128 126 125 129 131 127 125 124 122 115 109 102 89 82 74
127 144 148 147 140 136 136 133 131 130 133 133 132 131 129 129 129 129 132 137 139 143 148 148 144 142 142 138 132 124 120 121 128 138 140 141 148 152 139 126 119 115 113 108 103 100 96 93 96 105 112 115 122 134 139 134 129 125 122 121 122 126 131 136 128 115 108 109 115 122 127 130 133 139 137 133 134 135 130 121 111 102 92 88 76
140 156 152 145 139 139 140 135 134 134 132 129 129 131 131 133 132 134 136 138 142 147 151 148 146 142 137 131 127 126 123 119 122 133 143 148 155 157 147 138 129 121 117 112 107 104 103 103 102 106 114 119 126 137 144 142 135 131 128 125 125 129 140 150 140 124 116 116 119 131 140 147 153 154 147 142 146 145 133 115 112 102 85 75 48
150 158 149 139 140 143 142 136 137 134 131 129 131 134 134 136 135 139 141 141 146 148 149 143 138 130 126 124 123 124 121 117 111 123 143 153 163 167 160 155 150 135 128 120 113 112 110 111 113 115 120 123 130 142 150 150 143 139 134 129 129 137 156 165 143 120 117 124 133 146 155 170 186 186 177 174 163 164 174 147 165 147 66 56 35
154 156 145 140 144 145 141 138 140 134 133 132 134 136 135 136 136 139 140 142 147 146 143 137 131 125 126 128 130 133 131 128 115 114 132 151 168 182 180 172 170 158 145 136 124 121 119 121 124 126 131 132 135 146 154 155 149 143 136 133 136 147 165 175 160 126 120 135 152 157 169 193 226 230 215 212 205 206 226 239 249 264 311 334 1
154 152 144 144 146 147 145 144 144 138 137 136 136 137 134 133 132 133 133 139 145 141 139 134 131 129 132 137 137 136 134 133 125 123 123 140 164 184 199 198 194 185 169 160 143 133 129 131 134 134 140 143 143 150 157 156 152 146 141 138 134 148 174 178 182 204 151 163 181 182 200 226 244 242 233 234 235 239 246 249 259 277 299 328 347
152 149 144 148 154 154 153 151 147 144 143 140 140 138 134 132 129 129 131 137 141 138 138 133 132 136 146 150 143 137 135 135 133 167 189 160 167 182 201 210 210 203 200 199 178 158 147 144 145 143 143 146 146 151 160 159 156 153 148 143 138 160 200 191 199 229 222 203 201 210 221 236 250 252 249 247 251 253 256 262 272 294 320 344 354
153 147 142 151 161 158 155 152 150 149 147 145 145 143 139 135 132 133 138 145 147 147 145 140 143 149 157 151 138 146 155 162 177 202 222 247 219 197 204 211 219 216 209 212 213 197 173 167 159 151 147 147 147 150 162 164 165 163 155 152 150 177 225 236 247 229 204 219 222 228 233 244 258 263 262 259 264 266 266 278 290 319 345 354 359
156 148 141 150 158 157 155 151 153 153 150 153 151 148 145 141 141 145 151 153 153 153 150 150 155 160 161 146 137 157 174 190 217 233 235 251 262 250 226 211 217 224 221 213 217 218 202 191 175 162 154 146 147 153 163 165 170 177 166 155 136 163 244 261 274 278 294 271 252 244 243 248 257 264 271 274 280 280 278 290 303 330 351 1 13
159 154 149 150 157 163 158 153 158 154 154 155 152 153 151 148 152 158 157 156 160 157 155 160 162 170 176 161 152 167 202 210 223 241 242 244 250 256 254 227 211 220 228 223 219 221 217 209 189 176 165 155 155 155 158 159 164 254 206 165 135 163 243 265 279 290 304 284 258 250 251 253 260 268 273 280 288 292 292 308 318 321 352 32 44
164 162 153 150 160 166 160 159 157 152 156 156 153 156 157 156 160 164 155 158 172 167 165 176 172 177 193 193 179 184 218 226 231 242 246 249 245 247 256 253 224 210 219 224 225 222 217 215 200 189 181 175 181 176 168 164 174 295 258 183 151 192 241 269 279 286 295 286 265 254 256 261 267 277 283 287 294 304 308 311 311 311 21 75 67
161 159 151 151 159 163 163 163 152 153 159 157 155 156 162 161 157 160 155 164 184 182 178 187 184 187 207 225 218 211 226 236 240 241 247 256 255 249 249 258 254 227 215 213 219 224 218 213 206 199 191 186 193 199 196 194 222 279 271 175 150 214 258 277 283 290 289 286 282 267 263 270 275 280 288 295 297 298 297 288 291 315 78 88 83
151 148 148 151 154 159 165 161 153 161 159 152 154 157 166 160 149 153 157 171 189 192 190 197 199 203 219 230 235 235 239 248 252 250 252 263 267 259 251 254 257 250 233 214 209 212 209 208 212 207 199 191 186 199 208 222 239 247 257 218 168 223 263 273 277 279 277 287 301 281 268 274 280 283 288 294 289 281 278 251 236 157 109 93 90
144 139 143 150 153 159 162 161 159 163 155 147 151 160 168 161 149 144 148 166 188 200 203 210 212 215 229 233 238 242 247 257 260 257 260 269 272 262 255 253 252 253 247 235 224 212 202 199 214 215 205 197 195 219 227 225 234 226 229 242 218 227 253 260 262 265 270 282 293 286 282 284 282 281 285 285 278 270 257 220 192 157 122 99 88
136 135 142 148 151 155 155 156 157 155 151 145 147 155 161 162 158 146 144 162 187 211 220 216 213 219 236 240 237 238 246 259 259 256 260 265 266 260 255 251 250 252 248 244 242 232 219 205 213 220 211 203 204 224 234 228 231 223 216 232 230 228 247 250 246 255 267 276 278 281 290 294 286 276 277 276 269 260 237 213 183 158 130 105 92
129 132 140 143 142 143 145 147 147 146 147 143 142 145 151 159 163 157 155 166 180 204 221 219 217 224 237 241 242 248 259 264 262 260 260 259 257 257 254 248 248 250 248 242 238 238 237 226 222 228 227 220 218 226 232 225 224 224 217 223 227 224 232 240 240 247 261 273 277 281 288 298 290 269 263 264 259 245 221 203 183 157 128 114 104
125 129 134 140 138 136 139 142 142 140 139 138 139 142 146 154 164 173 171 171 179 194 214 221 219 229 239 242 252 262 267 263 259 259 260 262 257 254 252 247 247 249 251 246 240 240 241 237 230 235 241 239 233 231 233 226 220 220 218 222 233 230 227 236 244 244 251 266 273 277 282 293 291 262 250 253 248 233 217 195 174 153 131 124 115
123 127 130 139 141 139 140 137 137 137 135 136 138 140 145 161 175 179 172 170 177 178 191 228 245 257 251 243 249 255 260 259 256 258 262 266 262 258 257 252 247 246 249 249 249 249 249 248 238 237 247 249 244 236 234 230 223 218 212 220 238 240 236 239 242 239 243 255 263 272 277 284 286 262 247 246 241 222 206 192 172 156 144 137 124
119 122 125 131 137 140 138 135 140 141 135 134 135 135 145 174 176 165 158 158 169 92 117 240 254 267 259 249 250 246 251 255 254 258 262 265 264 261 259 254 248 243 246 247 248 252 254 257 251 247 251 253 252 241 232 228 223 218 211 218 240 245 245 244 237 233 240 246 253 265 271 274 275 264 251 244 239 216 201 199 192 186 178 173 158
121 123 123 126 131 135 134 134 140 137 126 127 132 140 160 188 179 152 139 127 255 301 315 265 239 250 262 260 258 248 246 252 257 260 261 263 264 263 258 253 250 246 245 245 245 248 252 256 257 256 255 253 252 245 234 228 225 224 218 219 235 241 243 245 235 231 239 241 247 260 267 268 267 262 252 246 240 220 216 219 214 212 209 204 186
125 127 127 132 134 138 137 131 138 140 132 131 138 157 173 183 182 163 170 202 245 279 290 275 250 242 246 251 255 255 254 254 259 262 261 263 264 263 258 253 252 250 248 248 249 249 250 253 252 253 253 249 248 246 240 234 231 232 227 221 227 235 236 236 230 227 232 234 241 254 262 264 262 259 252 247 242 227 230 236 231 222 216 216 207
128 126 126 137 139 142 143 138 146 147 141 140 148 169 175 168 174 188 210 223 236 274 277 269 275 255 237 250 262 256 260 263 263 264 264 264 266 265 259 254 253 252 252 253 255 254 251 251 251 252 251 246 243 242 241 237 233 234 232 226 228 234 234 231 227 223 224 230 236 243 254 258 256 255 251 245 241 235 237 241 239 229 216 215 211
128 122 118 125 129 137 143 144 150 152 152 151 155 177 180 169 179 203 230 243 248 267 255 242 258 254 241 264 288 275 266 266 265 267 267 265 267 267 261 257 257 256 256 257 258 257 253 253 255 257 255 249 244 242 241 238 236 237 234 229 230 236 236 231 229 226 225 232 239 242 244 249 253 251 247 245 243 244 243 240 241 233 220 213 206
134 134 132 125 122 133 139 145 152 154 159 155 157 183 194 191 186 197 223 246 266 269 248 236 249 259 252 260 283 286 277 272 271 270 269 269 268 269 266 261 260 260 260 259 258 256 254 256 259 258 256 253 250 247 245 242 238 238 237 231 230 235 236 232 229 230 231 232 238 243 234 235 247 245 239 243 242 246 245 239 241 235 223 216 207
134 138 143 138 130 128 126 135 150 154 164 162 162 178 190 198 194 199 211 214 251 256 234 230 247 261 262 264 276 283 275 270 274 275 275 275 272 268 265 262 262 262 261 261 260 258 257 259 260 259 257 255 253 250 249 246 241 238 239 235 232 234 235 234 231 230 234 232 236 245 234 227 239 238 238 246 242 239 239 239 241 232 222 218 215
129 131 137 138 131 124 115 109 112 133 160 179 175 179 190 201 208 215 216 204 219 232 223 224 234 242 250 257 268 277 277 276 276 276 276 276 275 270 263 261 262 263 265 264 262 261 260 260 261 260 259 257 255 254 253 251 244 238 238 238 237 239 238 236 234 233 236 235 237 242 230 223 235 236 240 249 247 237 228 235 237 225 218 218 220
130 131 130 129 128 130 129 120 112 124 144 162 169 184 203 213 221 226 231 229 231 236 234 232 231 232 238 242 253 267 273 279 282 280 276 274 274 272 267 262 260 263 267 267 264 264 264 263 262 259 259 258 256 255 255 252 247 242 240 241 240 243 243 239 237 237 236 233 235 237 226 224 234 238 241 245 247 239 224 227 230 221 217 216 218
136 137 134 134 131 130 132 129 129 139 144 154 163 179 202 214 226 231 239 245 249 251 249 248 245 240 236 234 245 260 267 274 280 280 279 280 279 276 274 270 265 264 266 268 268 269 270 269 266 263 261 259 257 255 254 252 251 247 241 241 241 241 243 241 236 235 234 230 230 233 230 232 236 238 240 242 246 241 226 222 225 220 212 210 213
140 140 141 144 143 143 149 148 148 158 162 177 186 185 198 211 227 239 251 257 260 261 259 264 265 261 255 248 245 243 250 262 270 274 279 287 290 287 284 279 275 273 271 273 276 277 278 275 270 268 265 261 258 256 253 251 251 248 239 236 239 240 240 239 236 234 232 228 227 228 230 233 235 237 239 241 246 243 229 220 223 220 210 205 208
139 138 136 137 138 142 154 164 176 186 184 193 207 211 211 213 225 240 249 256 265 274 275 273 274 279 279 280 273 255 250 255 257 263 270 276 284 290 291 286 282 277 275 278 282 283 282 278 275 272 268 263 260 259 256 251 250 250 243 235 232 234 237 239 239 237 233 227 225 226 229 232 234 236 237 239 242 238 228 221 223 221 213 206 203
137 135 130 125 125 137 184 202 205 214 214 214 219 220 222 222 232 250 259 262 264 271 280 280 281 284 279 282 285 280 279 279 271 269 271 271 274 282 288 290 287 282 282 285 284 282 279 277 277 272 267 263 261 258 257 254 252 251 248 242 237 237 241 240 234 232 230 228 227 228 230 234 235 235 235 236 236 234 230 226 225 222 216 210 203
133 129 129 128 157 227 240 234 227 227 223 224 227 224 229 231 234 259 275 277 279 283 284 282 283 284 281 284 288 286 289 296 298 292 284 279 277 278 280 283 285 285 289 290 284 279 277 277 276 273 271 266 260 256 256 256 255 253 250 246 243 243 242 234 224 221 221 224 227 228 231 234 233 233 232 232 231 231 232 231 227 222 219 215 207
136 144 155 178 218 226 232 239 240 239 231 228 228 226 231 233 233 250 268 276 284 289 287 284 288 291 290 292 294 292 291 293 298 296 289 286 285 284 281 280 281 283 286 285 281 279 277 277 276 275 274 267 261 258 257 256 256 257 254 247 243 244 240 231 222 218 215 219 224 225 226 229 231 231 230 230 229 229 231 230 225 220 220 217 210
132 191 245 252 238 224 234 258 259 260 254 236 226 222 225 228 233 245 259 269 274 281 288 290 293 299 304 302 296 294 294 294 294 293 292 292 291 291 290 289 286 286 286 282 282 282 279 277 276 275 275 271 267 265 262 259 257 258 257 250 245 243 240 235 226 219 218 223 221 219 221 222 226 228 228 228 229 228 228 227 222 218 219 215 208
5 319 301 291 248 185 183 302 328 32 36 270 227 217 214 220 231 242 252 261 267 273 286 294 292 296 305 312 311 305 303 302 298 295 294 293 292 293 293 293 291 289 287 284 283 282 280 281 281 280 278 276 273 267 262 261 258 256 257 255 249 244 241 237 230 223 227 229 221 223 230 229 228 228 226 226 227 226 225 225 221 214 213 210 204
339 323 320 359 62 87 86 33 20 38 68 65 291 222 207 213 222 233 247 257 265 272 283 296 297 297 300 308 317 316 311 310 309 309 308 303 299 297 294 293 294 294 293 292 292 290 286 285 286 284 280 277 275 271 264 262 261 259 257 256 254 249 246 243 237 231 232 231 225 230 240 239 236 235 230 227 225 225 222 220 218 214 211 209 205